CW0181 Weather Reports


time (UTC)temp
C
wind
direction
speed
KPH
gust
KPH
rain 1hr
cm
rain 24hr
cm
rain mn
cm
humidity
%
barometer
mb
20260507033604 18 281 4.8 11.3 0.00 0.00 0.00 77 1016.9
20260507032107 17 4 3.2 4.8 0.00 0.00 0.00 75 1016.8
20260507031605 17 352 1.6 4.8 0.00 0.00 0.00 75 1016.6
20260507031104 17 354 1.6 8.0 0.00 0.00 0.00 77 1016.6
20260507030604 17 355 3.2 4.8 0.00 0.00 0.00 77 1016.5
20260507025604 18 261 1.6 4.8 0.00 0.00 0.00 80 1016.5
20260507025105 18 257 1.6 8.0 0.00 0.00 0.00 80 1016.5
20260507024604 18 244 6.4 11.3 0.00 0.00 0.00 78 1016.5
20260507023604 17 293 3.2 12.9 0.00 0.00 0.00 81 1016.3
20260507023103 17 265 6.4 9.7 0.00 0.00 0.00 81 1016.2
20260507022604 17 266 6.4 9.7 0.00 0.00 0.00 82 1016.3
20260507022104 17 266 8.0 12.9 0.00 0.00 0.00 82 1016.2
20260507021604 17 267 9.7 14.5 0.00 0.00 0.00 82 1016.1
20260507021105 17 257 11.3 16.1 0.00 0.00 0.00 82 1016.1
20260507020604 17 260 11.3 14.5 0.00 0.00 0.00 82 1016.1
20260507020105 17 266 11.3 16.1 0.00 0.00 0.00 83 1016.0
20260507015604 17 255 11.3 16.1 0.00 0.00 0.00 83 1016.1
20260507015104 17 260 11.3 16.1 0.00 0.00 0.00 84 1016.0
20260507014604 17 255 12.9 19.3 0.00 0.00 0.00 84 1016.0
20260507014104 17 263 12.9 19.3 0.00 0.00 0.00 84 1015.9
20260507013604 18 249 12.9 19.3 0.00 0.00 0.00 84 1015.9
20260507012104 17 263 12.9 19.3 0.00 0.00 0.00 84 1015.8
20260507011604 17 262 12.9 19.3 0.00 0.00 0.00 84 1015.8
20260507011104 17 259 16.1 20.9 0.00 0.00 0.00 84 1015.8
20260507010105 18 261 14.5 24.1 0.00 0.00 0.00 85 1015.6
20260507005604 18 254 14.5 22.5 0.00 0.00 0.00 85 1015.6
20260507005104 18 258 16.1 22.5 0.00 0.00 0.00 85 1015.6
20260507004604 18 262 17.7 25.7 0.00 0.00 0.00 85 1015.6
20260507004104 18 256 17.7 27.4 0.00 0.00 0.00 85 1015.6
20260507003604 18 254 17.7 25.7 0.00 0.00 0.00 85 1015.7
20260507003105 18 258 20.9 29.0 0.00 0.00 0.00 84 1015.7
20260507002604 18 254 20.9 27.4 0.00 0.00 0.00 84 1015.6
20260507001103 18 253 20.9 29.0 0.00 0.00 0.00 83 1015.6
20260507000604 18 259 22.5 27.4 0.00 0.00 0.00 83 1015.5
20260507000105 18 256 19.3 25.7 0.00 0.00 0.00 82 1015.5
20260506235603 18 259 17.7 29.0 0.00 0.00 0.00 82 1015.6
20260506235104 18 254 17.7 24.1 0.00 0.00 0.00 82 1015.6
20260506234604 18 261 19.3 27.4 0.00 0.00 0.00 82 1015.6
20260506234104 18 257 20.9 25.7 0.00 0.00 0.00 82 1015.5
20260506233604 18 260 16.1 27.4 0.00 0.00 0.00 83 1015.6
20260506233104 18 262 19.3 27.4 0.00 0.00 0.00 83 1015.6
20260506232604 18 257 20.9 27.4 0.00 0.00 0.00 82 1015.5
20260506232104 18 260 19.3 32.2 0.00 0.00 0.00 82 1015.6
20260506231604 18 258 19.3 27.4 0.00 0.00 0.00 81 1015.7
20260506231104 18 259 19.3 24.1 0.00 0.00 0.00 81 1015.8
20260506230604 18 259 20.9 25.7 0.00 0.00 0.00 81 1015.8
20260506230104 18 256 19.3 25.7 0.00 0.00 0.00 81 1015.9
20260506225604 18 259 20.9 25.7 0.00 0.00 0.00 81 1015.9
20260506225104 18 260 19.3 25.7 0.00 0.00 0.00 82 1016.0
20260506224604 18 260 19.3 27.4 0.00 0.00 0.00 81 1016.1
20260506224103 18 255 19.3 25.7 0.00 0.00 0.00 82 1016.2
20260506223604 18 253 19.3 27.4 0.00 0.00 0.00 83 1016.3
20260506223104 18 256 19.3 25.7 0.00 0.00 0.00 83 1016.4
20260506222604 18 256 19.3 29.0 0.00 0.00 0.00 83 1016.4
20260506222104 18 257 19.3 24.1 0.00 0.00 0.00 82 1016.4
20260506221604 18 256 19.3 22.5 0.00 0.00 0.00 82 1016.5
20260506221104 18 252 19.3 22.5 0.00 0.00 0.00 81 1016.5
20260506220604 18 255 17.7 22.5 0.00 0.00 0.00 81 1016.7
20260506215604 18 261 16.1 24.1 0.00 0.00 0.00 81 1016.9
20260506215104 18 256 17.7 22.5 0.00 0.00 0.00 80 1016.9
20260506214104 18 257 16.1 22.5 0.00 0.00 0.00 79 1017.0
20260506213604 18 258 19.3 22.5 0.00 0.00 0.00 79 1017.0
20260506212604 18 261 16.1 20.9 0.00 0.00 0.00 78 1017.1
20260506212104 18 256 16.1 22.5 0.00 0.00 0.00 78 1017.2
20260506211604 18 254 16.1 20.9 0.00 0.00 0.00 77 1017.2
20260506211105 18 254 16.1 20.9 0.00 0.00 0.00 76 1017.2
20260506210104 18 248 14.5 19.3 0.00 0.00 0.00 77 1017.4
20260506205604 18 246 12.9 19.3 0.00 0.00 0.00 77 1017.4
20260506205104 18 251 11.3 19.3 0.00 0.00 0.00 78 1017.5
20260506204604 18 250 14.5 19.3 0.00 0.00 0.00 77 1017.5
20260506203604 18 257 12.9 20.9 0.00 0.00 0.00 78 1017.5
20260506203103 18 248 14.5 19.3 0.00 0.00 0.00 78 1017.6
20260506202104 18 260 12.9 20.9 0.00 0.00 0.00 77 1017.7
20260506201603 18 256 14.5 19.3 0.00 0.00 0.00 77 1017.8
20260506200604 19 243 12.9 20.9 0.00 0.00 0.00 76 1017.9
20260506200104 19 249 11.3 19.3 0.00 0.00 0.00 77 1017.9
20260506195604 18 247 11.3 19.3 0.00 0.00 0.00 77 1018.0
20260506195104 18 246 14.5 19.3 0.00 0.00 0.00 76 1018.1
20260506194605 18 256 9.7 19.3 0.00 0.00 0.00 78 1018.1
20260506194104 18 243 11.3 19.3 0.00 0.00 0.00 77 1018.1
20260506193604 18 246 12.9 19.3 0.00 0.00 0.00 76 1018.2
20260506193104 18 240 9.7 19.3 0.00 0.00 0.00 77 1018.2
20260506192104 18 254 9.7 19.3 0.00 0.00 0.00 77 1018.3
20260506191605 18 236 11.3 19.3 0.00 0.00 0.00 76 1018.3
20260506191105 18 190 8.0 16.1 0.00 0.00 0.00 78 1018.4
20260506190605 18 217 11.3 19.3 0.00 0.00 0.00 78 1018.4
20260506190106 18 231 9.7 16.1 0.00 0.00 0.00 79 1018.5
20260506185105 18 239 11.3 19.3 0.00 0.00 0.00 79 1018.6
20260506184106 18 247 9.7 19.3 0.00 0.00 0.00 79 1018.7
20260506183605 18 225 8.0 16.1 0.00 0.00 0.00 79 1018.7
20260506182605 18 242 6.4 12.9 0.00 0.00 0.00 80 1018.8
20260506182105 18 171 9.7 19.3 0.00 0.00 0.00 79 1018.7
20260506181605 18 178 9.7 16.1 0.00 0.00 0.00 79 1018.8
20260506181105 18 197 9.7 16.1 0.00 0.00 0.00 79 1018.8
20260506180605 18 242 11.3 19.3 0.00 0.00 0.00 79 1018.7
20260506180105 18 248 11.3 16.1 0.00 0.00 0.00 79 1018.7
20260506175605 18 242 8.0 19.3 0.00 0.00 0.00 78 1018.8
20260506175105 18 203 9.7 19.3 0.00 0.00 0.00 78 1018.7
20260506174605 18 230 9.7 16.1 0.00 0.00 0.00 78 1018.8
20260506174105 18 210 6.4 16.1 0.00 0.00 0.00 79 1018.8
20260506173106 18 209 8.0 16.1 0.00 0.00 0.00 78 1018.6
20260506172105 18 234 11.3 19.3 0.00 0.00 0.00 77 1018.7
20260506171605 18 227 8.0 14.5 0.00 0.00 0.00 77 1018.7
20260506170605 18 210 8.0 12.9 0.00 0.00 0.00 78 1018.7
20260506170105 18 228 6.4 12.9 0.00 0.00 0.00 77 1018.6
20260506165105 18 243 9.7 16.1 0.00 0.00 0.00 77 1018.6
20260506164605 17 251 6.4 14.5 0.00 0.00 0.00 78 1018.6
20260506164105 18 238 4.8 12.9 0.00 0.00 0.00 77 1018.6
20260506163605 18 237 6.4 11.3 0.00 0.00 0.00 77 1018.6
20260506162604 17 227 6.4 11.3 0.00 0.00 0.00 77 1018.5
20260506162104 17 215 4.8 12.9 0.00 0.00 0.00 77 1018.5
20260506161604 17 248 8.0 11.3 0.00 0.00 0.00 76 1018.4
20260506161105 17 227 6.4 12.9 0.00 0.00 0.00 76 1018.5
20260506155105 18 122 4.8 9.7 0.00 0.00 0.00 74 1018.6
20260506154604 18 100 3.2 4.8 0.00 0.00 0.00 76 1018.7
20260506154104 17 100 1.6 4.8 0.00 0.00 0.00 76 1018.6
20260506153605 17 99 3.2 9.7 0.00 0.03 0.00 77 1018.6
20260506153105 17 113 4.8 11.3 0.00 0.03 0.00 76 1018.6
20260506152105 17 98 4.8 4.8 0.00 0.03 0.00 77 1018.6
20260506151605 17 100 4.8 9.7 0.00 0.03 0.00 78 1018.7
20260506151104 17 87 4.8 8.0 0.00 0.03 0.00 78 1018.7
20260506144605 15 83 3.2 4.8 0.00 0.03 0.00 80 1018.6
20260506144104 15 81 4.8 4.8 0.00 0.03 0.00 81 1018.6
20260506143604 15 81 3.2 8.0 0.00 0.03 0.00 81 1018.6
20260506143105 15 78 8.0 11.3 0.00 0.03 0.00 81 1018.6
20260506142604 15 83 8.0 8.0 0.00 0.03 0.00 81 1018.5
20260506141605 15 82 4.8 9.7 0.00 0.03 0.00 83 1018.4
20260506141106 14 93 3.2 9.7 0.00 0.03 0.00 84 1018.4
20260506140604 14 86 4.8 4.8 0.00 0.03 0.00 85 1018.4
20260506140105 14 87 4.8 9.7 0.00 0.03 0.00 85 1018.4
20260506135605 14 96 3.2 4.8 0.00 0.03 0.00 86 1018.3
20260506135105 13 97 4.8 9.7 0.00 0.03 0.00 86 1018.4
20260506134104 13 101 3.2 4.8 0.00 0.03 0.00 86 1018.3
20260506133605 13 205 3.2 4.8 0.00 0.03 0.00 87 1018.2
20260506133106 13 206 1.6 4.8 0.00 0.03 0.00 87 1018.2
20260506132605 13 227 1.6 4.8 0.00 0.03 0.00 87 1018.1
20260506132105 13 228 3.2 4.8 0.00 0.03 0.00 87 1018.1
20260506131605 13 228 1.6 3.2 0.00 0.03 0.00 87 1018.0
20260506130604 13 228 3.2 4.8 0.00 0.03 0.00 86 1017.9
20260506125605 13 228 1.6 3.2 0.00 0.03 0.00 87 1017.8
20260506125105 13 228 3.2 4.8 0.00 0.03 0.00 87 1017.8
20260506124604 13 228 3.2 4.8 0.00 0.03 0.00 87 1017.7
20260506124105 13 228 1.6 3.2 0.00 0.03 0.00 87 1017.7
20260506123604 13 228 1.6 3.2 0.00 0.03 0.00 87 1017.7
20260506123105 13 228 1.6 3.2 0.00 0.03 0.00 87 1017.6
20260506122105 13 228 1.6 3.2 0.00 0.03 0.00 87 1017.6
20260506121605 13 228 1.6 4.8 0.00 0.03 0.00 87 1017.5
20260506121105 13 228 1.6 3.2 0.00 0.03 0.00 87 1017.5
20260506120605 13 228 3.2 4.8 0.00 0.03 0.00 88 1017.5
20260506115605 13 228 1.6 4.8 0.00 0.03 0.00 88 1017.5
20260506115104 13 228 1.6 4.8 0.00 0.03 0.00 88 1017.5
20260506114605 13 228 3.2 4.8 0.00 0.03 0.00 89 1017.5
20260506114105 13 237 3.2 4.8 0.00 0.03 0.00 89 1017.5
20260506113604 13 237 3.2 4.8 0.00 0.03 0.00 89 1017.4
20260506113105 13 237 3.2 4.8 0.00 0.03 0.00 89 1017.4
20260506112105 14 238 3.2 4.8 0.00 0.03 0.00 88 1017.3
20260506111605 14 238 3.2 4.8 0.00 0.03 0.00 88 1017.3
20260506111105 14 238 3.2 4.8 0.00 0.03 0.00 88 1017.2
20260506110604 15 239 3.2 4.8 0.00 0.03 0.00 88 1017.3
20260506110104 15 241 0.0 1.6 0.00 0.03 0.00 87 1017.3
20260506105604 15 241 1.6 3.2 0.00 0.03 0.00 87 1017.3
20260506105105 15 241 0.0 1.6 0.00 0.03 0.00 87 1017.3
20260506104604 15 241 0.0 3.2 0.00 0.03 0.00 87 1017.3
20260506104104 15 241 1.6 3.2 0.00 0.03 0.00 87 1017.4
20260506103604 15 241 3.2 4.8 0.00 0.03 0.00 87 1017.3
20260506103105 15 241 3.2 4.8 0.00 0.03 0.00 87 1017.3
20260506102105 15 241 3.2 4.8 0.00 0.03 0.00 87 1017.3
20260506101605 15 241 4.8 8.0 0.00 0.03 0.00 88 1017.3
20260506100604 15 241 4.8 8.0 0.00 0.03 0.00 88 1017.3
20260506100105 15 240 4.8 8.0 0.00 0.03 0.00 88 1017.3
20260506095604 15 239 4.8 8.0 0.00 0.03 0.00 88 1017.3
20260506095104 15 239 6.4 9.7 0.00 0.03 0.00 88 1017.3
20260506094604 15 235 4.8 9.7 0.00 0.03 0.00 88 1017.4
20260506094104 15 235 4.8 8.0 0.00 0.03 0.00 88 1017.4
20260506093605 15 216 3.2 8.0 0.00 0.03 0.00 88 1017.5
20260506093104 15 229 4.8 9.7 0.00 0.03 0.00 88 1017.4
20260506092604 15 235 6.4 11.3 0.00 0.03 0.00 88 1017.5
20260506092104 15 237 6.4 9.7 0.00 0.03 0.00 88 1017.4
20260506091604 15 241 6.4 11.3 0.00 0.03 0.00 88 1017.4
20260506091104 15 241 8.0 9.7 0.00 0.03 0.00 88 1017.5
20260506090605 15 230 8.0 11.3 0.00 0.05 0.00 88 1017.5
20260506090105 15 246 4.8 11.3 0.00 0.08 0.00 88 1017.6
20260506085604 15 245 8.0 11.3 0.00 0.10 0.00 88 1017.6
20260506085105 15 245 6.4 11.3 0.00 0.13 0.00 88 1017.6
20260506084605 15 245 4.8 8.0 0.00 0.13 0.00 88 1017.6
20260506084105 15 245 3.2 4.8 0.00 0.13 0.00 88 1017.6
20260506083604 15 245 4.8 4.8 0.00 0.13 0.00 88 1017.7
20260506083105 15 245 4.8 8.0 0.00 0.13 0.00 88 1017.7
20260506082605 15 245 3.2 4.8 0.00 0.15 0.00 88 1017.8
20260506082105 15 245 3.2 4.8 0.00 0.15 0.00 88 1017.7
20260506081106 15 245 4.8 11.3 0.00 0.15 0.00 88 1017.8
20260506080605 15 248 6.4 11.3 0.00 0.15 0.00 88 1017.8
20260506080105 15 248 4.8 8.0 0.00 0.18 0.00 88 1017.8
20260506073104 15 248 4.8 8.0 0.00 0.18 0.00 87 1017.8
20260506072604 15 247 4.8 8.0 0.00 0.18 0.00 88 1017.7
20260506071604 16 248 4.8 8.0 0.00 0.18 0.00 88 1017.7
20260506070605 16 243 4.8 11.3 0.00 0.18 0.00 88 1017.7
20260506070105 16 239 4.8 4.8 0.00 0.18 0.00 88 1017.6
20260506062104 16 273 4.8 9.7 0.00 0.18 0.18 87 1017.3
20260506061604 16 279 3.2 4.8 0.00 0.18 0.18 87 1017.3
20260506061104 16 269 4.8 12.9 0.00 0.18 0.18 87 1017.3
20260506060605 16 287 4.8 11.3 0.00 0.18 0.18 87 1017.3
20260506060105 16 264 6.4 12.9 0.00 0.18 0.18 87 1017.2
20260506050604 16 276 8.0 12.9 0.00 0.18 0.18 87 1016.8
20260506050104 16 267 8.0 12.9 0.00 0.18 0.18 86 1016.8
20260506045104 16 281 4.8 9.7 0.00 0.18 0.18 86 1016.6
20260506044605 16 279 6.4 11.3 0.00 0.18 0.18 86 1016.5
20260506044104 16 279 8.0 11.3 0.00 0.18 0.18 86 1016.4
20260506043605 16 272 8.0 11.3 0.00 0.18 0.18 86 1016.4
20260506042604 16 262 9.7 14.5 0.00 0.18 0.18 86 1016.4
20260506042104 16 264 11.3 16.1 0.00 0.18 0.18 86 1016.3
20260506041605 16 261 11.3 19.3 0.00 0.18 0.18 86 1016.3
20260506040604 16 259 14.5 19.3 0.00 0.18 0.18 85 1016.2
20260506040104 16 262 11.3 16.1 0.00 0.18 0.18 85 1016.1
20260506035604 16 259 11.3 16.1 0.00 0.18 0.18 85 1016.0
20260506035104 16 261 14.5 19.3 0.00 0.18 0.18 85 1015.9
20260506034604 16 258 12.9 19.3 0.00 0.18 0.18 84 1015.8
20260506034104 16 257 11.3 16.1 0.00 0.18 0.18 84 1015.8